St. Marys, AK

7:44 PM AKST on November 17, 2019 (GMT -0900)
Saint Mary's

Weather History for PASM - September, 2019

Change the Weather History Date:

Friday, September 6, 2019

  Actual Average Record
Temperature  
Mean Temperature 52 °F -  
Max Temperature 50 °F 50 °F 60 °F (1997)
Min Temperature 50 °F 39 °F 33 °F (2014)
Degree Days  
Heating Degree Days 13    
Growing Degree Days 2 (Base 50)    
Moisture  
Dew Point 50 °F    
Average Humidity 94    
Maximum Humidity 100    
Minimum Humidity 82    
Precipitation  
Precipitation 0.14 in - - ()
Sea Level Pressure  
Sea Level Pressure 29.81 in    
Wind  
Wind Speed 12 mph ()    
Max Wind Speed 16 mph    
Max Gust Speed 24 mph    
Visibility 9.0 miles    
Events Rain    
Averages and records for this station are not official NWS values.
T = Trace of Precipitation, MM = Missing Value Source: Averaged Metar Reports

Daily Weather History Graph

Daily Weather History Graph

Search for Another Location

Airport or City:

Astronomy

Sep. 06, 2019 Rise Set
Actual Time 7:55 AM AKDT 9:45 PM AKDT
Civil Twilight 7:08 AM AKDT 10:32 PM AKDT
Nautical Twilight 6:06 AM AKDT 11:33 PM AKDT
Astronomical Twilight 4:46 AM AKDT 12:51 AM AKDT
Moon 6:47 PM AKDT (9/6) No Moon Set
Length of Visible Light 15h 24m
Length of Day
13h 50m
First Quarter, 57% of the Moon is Illuminated
Sep 6
First Quarter
Sep 13
Full
Sep 21
Last Quarter
Sep 28
New
Oct 5
First Quarter

Hourly Weather History & Observations

Time (AKDT) Temp. Dew Point Humidity Pressure Visibility Wind Dir Wind Speed Gust Speed Precip Events Conditions
12:02 AM 53.1 °F 53.1 °F 100% 29.86 in 4.0 mi SSE 12.7 mph 20.7 mph 0.00 in Rain Light Rain
1:02 AM 53.1 °F 52.0 °F 96% 29.87 in 10.0 mi SSE 13.8 mph 23.0 mph 0.04 in Rain Light Rain
2:02 AM 52.0 °F 52.0 °F 100% 29.87 in 5.0 mi SSE 16.1 mph 24.2 mph 0.01 in Rain Light Rain
3:02 AM 52.0 °F 51.1 °F 97% 29.87 in 6.0 mi SSE 15.0 mph 20.7 mph 0.00 in Rain Light Rain
4:02 AM 51.8 °F 51.8 °F 100% 29.85 in 8.0 mi SSE 13.8 mph 21.9 mph 0.01 in Rain Light Rain
5:02 AM 51.1 °F 50.0 °F 96% 29.87 in 10.0 mi SSE 11.5 mph 20.7 mph 0.00 in Rain Light Rain
6:02 AM 51.1 °F 50.0 °F 96% 29.86 in 10.0 mi SE 11.5 mph 23.0 mph 0.02 in Rain Light Rain
7:02 AM 51.1 °F 50.0 °F 96% 29.86 in 9.0 mi SE 13.8 mph 19.6 mph 0.00 in Rain Light Rain
8:02 AM 51.1 °F 48.9 °F 92% 29.85 in 10.0 mi SE 15.0 mph 21.9 mph 0.02 in Rain Light Rain
8:19 AM 50.0 °F 48.2 °F 94% 29.82 in 10.0 mi ESE 16.1 mph 23.0 mph 0.00 in Rain Light Rain
8:26 AM 50.0 °F 48.2 °F 94% 29.82 in 10.0 mi ESE 13.8 mph 23.0 mph 0.00 in Rain Light Rain
9:02 AM 50.0 °F 48.2 °F 94% 29.82 in 8.0 mi ESE 13.8 mph 21.9 mph 0.01 in Rain Light Rain
9:11 AM 50.0 °F 48.2 °F 94% 29.82 in 9.0 mi ESE 16.1 mph 24.2 mph 0.01 in Rain Light Rain
9:17 AM 50.0 °F 48.9 °F 96% 29.85 in 8.0 mi SE 12.7 mph 21.9 mph 0.01 in Rain Light Rain
9:26 AM 50.0 °F 48.2 °F 94% 29.82 in 8.0 mi ESE 15.0 mph - 0.00 in Rain Light Rain
9:49 AM 50.0 °F 48.2 °F 94% 29.82 in 7.0 mi ESE 13.8 mph 19.6 mph 0.00 in Rain Light Rain
10:02 AM 50.0 °F 48.9 °F 96% 29.84 in 10.0 mi ESE 13.8 mph - 0.00 in Rain Light Rain
11:02 AM 51.1 °F 50.0 °F 96% 29.84 in 10.0 mi ESE 12.7 mph 21.9 mph 0.00 in   Overcast
12:02 PM 52.0 °F 50.0 °F 93% 29.83 in 10.0 mi ESE 12.7 mph - N/A   Overcast
1:02 PM 53.1 °F 50.0 °F 89% 29.83 in 10.0 mi ESE 11.5 mph - N/A   Overcast
2:02 PM 54.0 °F 50.0 °F 86% 29.82 in 10.0 mi ESE 10.4 mph - 0.00 in Rain Light Rain
5:02 PM 54.0 °F 50.0 °F 86% 29.77 in 10.0 mi ESE 15.0 mph 20.7 mph 0.00 in   Overcast
5:12 PM 53.6 °F 48.2 °F 82% 29.75 in 10.0 mi ESE 15.0 mph 20.7 mph 0.00 in Rain Light Rain
6:02 PM 52.0 °F 50.0 °F 93% 29.76 in 10.0 mi ESE 15.0 mph 20.7 mph 0.02 in Rain Light Rain
7:02 PM 51.1 °F 50.0 °F 96% 29.74 in 10.0 mi East 15.0 mph - 0.01 in Rain Light Rain
8:02 PM 52.0 °F 50.0 °F 93% 29.72 in 10.0 mi East 15.0 mph 19.6 mph 0.01 in   Overcast
9:02 PM 51.1 °F 50.0 °F 96% 29.70 in 10.0 mi East 13.8 mph - 0.00 in Rain Light Rain
10:02 PM 51.1 °F 48.9 °F 92% 29.69 in 10.0 mi East 15.0 mph - 0.00 in   Overcast
11:02 PM 51.1 °F 48.9 °F 92% 29.69 in 10.0 mi East 15.0 mph - 0.00 in Rain Light Rain